Location: Newark
(48.6676°N, 6.1917°E)
Time: 11:19:32
(UTC+00:00)

N. Korean satellite - Pass Details

Date: 09 December 2019
Orbit: 454 x 508 km, 97.2° (Epoch: 17 January)

Event Time Altitude Azimuth Distance (km) Brightness Sun altitude
Rises 17:37:48 0° 207° (SSW) 2,603 10.9 -18.6°
Reaches altitude 10° 17:40:33 10° 230° (SW) 1,723 10.3 -19.0°
Maximum altitude 17:42:53 16° 269° (W) 1,392 9.9 -19.4°
Drops below altitude 10° 17:45:14 10° 309° (NW) 1,724 9.9 -19.8°
Sets 17:48:00 0° 331° (NNW) 2,607 10.5 -20.2°
